Cottonwood Airport (P52)
Cottonwood, AZ
Field Elevation: 3562
Lat: 34°43.80N  Long: 112°02.10W
CTAF/Unicom Freq: 122.7000
   
    
Weather Advisories
3/1/2015 00:28 Z
Altimeter 29.85" Hg
Wind 150° @ 4 KT
Gusts --
Visibility 10 SM
Temperature 12° C (54° F)
Dewpoint 5° C (41° F)
Relative Humidity 60%
Density Altitude --
Condensation Altitude 7,200 feet
  Wind and Runways
Indicated Runway = 14
History
 
 
More Info
All DigiWx sites map
NOAA Forecast
 
Airport IQ 5010
 
about DigiWx
 
FAA Disclaimer: The data displayed is for advisory purposes only and is not to be used for flight planning or operations. For official data, please call (not available) to hear the current automated AWOS voice message.
  METAR P52 010028Z AUTO 15004KT 10SM 12/05 A2985